OBJECT C, 59775

Orbit data source: Space-Track

You're viewing an Uncataloged Satellite

Recently launched and/or uncataloged satellites may have evolving metadata. Metadata may include but not limited to: Owner, Maufacturer, Bus, Motor, and Mission.

OBJECT C, 59775 is a satellite owned by Sputniks (CIS) in SSO that was launched on Thu, 16 May 2024 UTC via a SOYUZ-2-1B launch vehicle from the Plesetsk Missile And Space Complex (PKMTR). Unknown objects in Earth's orbit typically refer to objects detected orbiting the Earth but have not yet been identified or cataloged. These objects could be anything from previously untracked satellites, spent rocket stages, debris from satellite collisions, or even natural meteoroids temporarily captured by Earth's gravity.

Loading next visibility...
Identifier
59775, 2024-092C
Orbit
SSO
Last TLE update
9 hours ago
Origin
Manufacturer
Sputniks
Mission
Operational spacecraft
Bus & Motor
CUBESAT 12U, Unknown motor
Mass
20 kg wet, 20 kg dry
Launch date (UTC)
2024-05-16 (1 year ago)
Launch vehicle
SOYUZ-2-1B
Launch site
Plesetsk Missile And Space Complex (PKMTR)
Object type
Unknown
Shape & HBR
Unknown
Radar Cross Section
Medium (>0.1 m² and <1 m²)

Expand to show TLE details & history

TLE from 9 hours ago
0 OBJECT C
1 59775U 24092C   25128.92555466  .00010794  00000-0  50542-3 0  9990
2 59775  97.6227 246.9496 0011820 153.1619 207.0230 15.19847919 53990
Epoch: 2025-05-08T22:12Z
Definitive object data (Epoch: 2025-05-08T22:12:47.922Z)
Latitude
0.00004°
Longitude
46.76087°
Altitude
516.636 km
Speed
7.601 km/s
True Right ascension
16h 27m 47s
True Declination
0° 00' 00"
Sunlit
Object was in full shadow at TLE epoch
Visualization TLE readout
Latitude
18.25599°
Longitude
-130.36059°
Altitude
500.779 km
Speed
7.62 km/s
Apparent Right ascension
03h 56m 07s
Apparent Declination
-9° 48' 11"
Sunlit
Object is in daylight
Visualization observer readout
Local Sidereal Time
14:58:13
Azimuth
332.917° NNW
Elevation
-57.251°
Doppler factor
1
Orbital elements
Apogee altitude
511.409 km
Perigee altitude
495.141 km
Semi-major axis
6,881.412 km
Eccentricity
0.001182
Inclination
97.6227°
RAAN
246.9496°
Arg. of periapsis
153.1619°
True anomaly
206.96154°
Mean anomaly
207.023°
Eccentric anomaly
206.99226°
Mean motion
3.80213 °/min
BSTAR
0.00050542
Orbital period
94.68 mins
Loading maneuver chart data...
Loading SW <> Apogee altitude chart data...
Loading historical data...
Loading historical data...
Loading historical data...
Loading historical data...
Loading historical data...
Loading historical data...
Loading historical data...

OBJECT C Visibility forecast

Observer location: undefined°, undefined°

Span
Click to sort rows by Start time (UTC) header in descending order
Start Az.
Max El. time (UTC)
Max El. Az.
Max El.
End time (UTC)
End Az.
6 mins2025-05-09 07:49:19.496Z164.104° S2025-05-09 07:52:19.496Z53.475° ENE44.802°2025-05-09 07:55:19.496Z349.58° N
5 mins2025-05-09 20:54:19.496Z1.75° NNE2025-05-09 20:56:19.496Z319.554° NNW40.655°2025-05-09 20:59:19.496Z205.928° SW
|